Regional Weather Roundup
Issued by NWS

Home | Current Version | Previous Version | Text Only | Print | Product List | Glossary On
Versions: 1 2 3 4 5 6 7 8 9 10 11 12 13 14 15 16 17 18 19 20 21 22 23 24 25 26 27 28 29 30 31 32 33 34 35 36 37 38 39 40 41 42 43 44 45 46 47 48 49
000
ASUS44 KBMX 200910
RWRAL

ALABAMA REGIONAL WEATHER ROUNDUP
NATIONAL WEATHER SERVICE BIRMINGHAM AL
300 AM CST SAT DEC 20 2014

NOTE: "FAIR" INDICATES FEW OR NO CLOUDS BELOW 12,000 FEET
WITH NO SIGNIFICANT WEATHER AND/OR OBSTRUCTIONS TO VISIBILITY.

THE REMARK "TC" DENOTES TEMPERATURE IN DEGREES CELSIUS.

ALZ001>011-014-016>018-020-201000-
NORTH ALABAMA

CITY           SKY/WX    TMP DP  RH WIND       PRES   REMARKS
MUSCLE SHOALS  CLOUDY    39  31  72 CALM      30.21S
HUNTSVILLE     CLOUDY    40  32  73 N5        30.19R
DECATUR        CLOUDY    38  32  79 N6        30.20R WCI  33
HALEYVILLE     FAIR      34  33  96 CALM      30.20R
GADSDEN        CLOUDY    39  37  93 CALM      30.17R
$$

ALZ012-013-022-023-030>036-040>044-201000-
WEST CENTRAL ALABAMA

CITY           SKY/WX    TMP DP  RH WIND       PRES   REMARKS
TUSCALOOSA     CLOUDY    42  39  89 N5        30.18F
$$

ALZ015-024>027-033>036-040>044-201000-
CENTRAL ALABAMA

CITY           SKY/WX    TMP DP  RH WIND       PRES   REMARKS
BIRMINGHAM     CLOUDY    40  38  93 NW3       30.19R FOG
MONTGOMERY     CLOUDY    46  43  89 N5        30.13F
SHELBY CO ARPT LGT RAIN  42  41  96 NW5       30.16S FOG
MAXWELL AFB    LGT RAIN  45  43  93 NE3       30.12F
GREENVILLE     LGT RAIN  46  44  93 E5        30.10F FOG
$$

ALZ019-021-028-029-037-038-045>048-201000-
EAST CENTRAL ALABAMA

CITY           SKY/WX    TMP DP  RH WIND       PRES   REMARKS
ANNISTON       CLOUDY    42  39  89 CALM      30.16R
ALEXANDER CITY LGT RAIN  44  40  86 NW3       30.14R
AUBURN         CLOUDY    41  37  87 N7        30.14S
$$

ALZ051>064-201000-
SOUTHWEST ALABAMA

CITY           SKY/WX    TMP DP  RH WIND       PRES   REMARKS
MOBILE         LGT RAIN  46  46 100 N9        30.09S
BROOKLEY FIELD RAIN      49  47  93 N7        30.11R
EVERGREEN      RAIN      47  45  93 CALM      30.11R FOG
$$

ALZ049-050-065>069-201000-
SOUTHEAST ALABAMA

CITY           SKY/WX    TMP DP  RH WIND       PRES   REMARKS
DOTHAN         LGT RAIN  47  45  93 NE6       30.14S
OZARK          CLOUDY    46  45  93 NE7       30.09F
TROY           LGT RAIN  46  44  93 CALM      30.12R FOG
EUFAULA        LGT RAIN  47  45  93 CALM      30.11S
$$



USA.gov is the U.S. government's official web portal to all federal, state and local government web resources and services.